Year,Month,Day,Hour,Minute,Value (Times are PST for temperature in C)
2008,08,15,00,00,21.60
2008,08,15,00,01,21.60
2008,08,15,00,02,21.60
2008,08,15,00,03,21.60
2008,08,15,00,04,21.60
2008,08,15,00,05,21.60
2008,08,15,00,06,21.60
2008,08,15,00,07,21.60
2008,08,15,00,08,21.60
2008,08,15,00,09,21.40
2008,08,15,00,10,21.40
2008,08,15,00,11,21.30
2008,08,15,00,12,21.30
2008,08,15,00,13,21.30
2008,08,15,00,14,21.30
2008,08,15,00,15,21.30
2008,08,15,00,16,21.30
2008,08,15,00,17,21.30
2008,08,15,00,18,21.30
2008,08,15,00,19,21.30
2008,08,15,00,20,21.30
2008,08,15,00,21,21.30
2008,08,15,00,22,21.30
2008,08,15,00,23,21.40
2008,08,15,00,24,21.40
2008,08,15,00,25,21.40
2008,08,15,00,26,21.40
2008,08,15,00,27,21.40
2008,08,15,00,28,21.50
2008,08,15,00,29,21.60
2008,08,15,00,30,21.60
2008,08,15,00,31,21.60
2008,08,15,00,32,21.60
2008,08,15,00,33,21.50
2008,08,15,00,34,21.50
2008,08,15,00,35,21.40
2008,08,15,00,36,21.40
2008,08,15,00,37,21.40
2008,08,15,00,38,21.40
2008,08,15,00,39,21.40
2008,08,15,00,40,21.40
2008,08,15,00,41,21.40
2008,08,15,00,42,21.40
2008,08,15,00,43,21.40
2008,08,15,00,44,21.40
2008,08,15,00,45,21.40
2008,08,15,00,46,21.40
2008,08,15,00,47,21.40
2008,08,15,00,48,21.40
2008,08,15,00,49,21.40
2008,08,15,00,50,21.40
2008,08,15,00,51,21.40
2008,08,15,00,52,21.40
2008,08,15,00,53,21.40
2008,08,15,00,54,21.40
2008,08,15,00,55,21.30
2008,08,15,00,56,21.30
2008,08,15,00,57,21.30
2008,08,15,00,58,21.30
2008,08,15,00,59,21.30
2008,08,15,01,00,21.30
2008,08,15,01,01,21.20
2008,08,15,01,02,21.20
2008,08,15,01,03,21.20
2008,08,15,01,04,21.10
2008,08,15,01,05,21.10
2008,08,15,01,06,21.00
2008,08,15,01,07,21.00
2008,08,15,01,08,21.00
2008,08,15,01,09,21.00
2008,08,15,01,10,21.00
2008,08,15,01,11,21.00
2008,08,15,01,12,21.00
2008,08,15,01,13,21.00
2008,08,15,01,14,21.00
2008,08,15,01,15,21.00
2008,08,15,01,16,21.10
2008,08,15,01,17,21.10
2008,08,15,01,18,21.10
2008,08,15,01,19,21.10
2008,08,15,01,20,21.10
2008,08,15,01,21,21.10
2008,08,15,01,22,21.10
2008,08,15,01,23,21.10
2008,08,15,01,24,21.10
2008,08,15,01,25,21.00
2008,08,15,01,26,21.00
2008,08,15,01,27,21.00
2008,08,15,01,28,20.90
2008,08,15,01,29,20.80
2008,08,15,01,30,20.80
2008,08,15,01,31,20.80
2008,08,15,01,32,20.80
2008,08,15,01,33,20.70
2008,08,15,01,34,20.70
2008,08,15,01,35,20.70
2008,08,15,01,36,20.70
2008,08,15,01,37,20.70
2008,08,15,01,38,20.70
2008,08,15,01,39,20.60
2008,08,15,01,40,20.60
2008,08,15,01,41,20.60
2008,08,15,01,42,20.60
2008,08,15,01,43,20.60
2008,08,15,01,44,20.60
2008,08,15,01,45,20.50
2008,08,15,01,46,20.50
2008,08,15,01,47,20.50
2008,08,15,01,48,20.50
2008,08,15,01,49,20.50
2008,08,15,01,50,20.40
2008,08,15,01,51,20.40
2008,08,15,01,52,20.40
2008,08,15,01,53,20.40
2008,08,15,01,54,20.40
2008,08,15,01,55,20.50
2008,08,15,01,56,20.50
2008,08,15,01,57,20.50
2008,08,15,01,58,20.60
2008,08,15,01,59,20.60
2008,08,15,02,00,20.60
2008,08,15,02,01,20.70
2008,08,15,02,02,20.70
2008,08,15,02,03,20.70
2008,08,15,02,04,20.70
2008,08,15,02,05,20.70
2008,08,15,02,06,20.70
2008,08,15,02,07,20.80
2008,08,15,02,08,20.80
2008,08,15,02,09,20.80
2008,08,15,02,10,20.80
2008,08,15,02,11,20.80
2008,08,15,02,12,20.90
2008,08,15,02,13,20.90
2008,08,15,02,14,20.90
2008,08,15,02,15,20.90
2008,08,15,02,16,21.00
2008,08,15,02,17,21.00
2008,08,15,02,18,21.00
2008,08,15,02,19,21.00
2008,08,15,02,20,21.00
2008,08,15,02,21,21.10
2008,08,15,02,22,21.10
2008,08,15,02,23,21.10
2008,08,15,02,24,21.10
2008,08,15,02,25,21.10
2008,08,15,02,26,21.10
2008,08,15,02,27,21.10
2008,08,15,02,28,21.10
2008,08,15,02,29,21.10
2008,08,15,02,30,21.10
2008,08,15,02,31,21.10
2008,08,15,02,32,21.10
2008,08,15,02,33,21.10
2008,08,15,02,34,21.10
2008,08,15,02,35,21.10
2008,08,15,02,36,21.00
2008,08,15,02,37,21.00
2008,08,15,02,38,21.00
2008,08,15,02,39,20.90
2008,08,15,02,40,20.90
2008,08,15,02,41,20.90
2008,08,15,02,42,20.90
2008,08,15,02,43,20.80
2008,08,15,02,44,20.80
2008,08,15,02,45,20.80
2008,08,15,02,46,20.70
2008,08,15,02,47,20.70
2008,08,15,02,48,20.60
2008,08,15,02,49,20.60
2008,08,15,02,50,20.60
2008,08,15,02,51,20.50
2008,08,15,02,52,20.50
2008,08,15,02,53,20.40
2008,08,15,02,54,20.40
2008,08,15,02,55,20.30
2008,08,15,02,56,20.30
2008,08,15,02,57,20.20
2008,08,15,02,58,20.20
2008,08,15,02,59,20.20
2008,08,15,03,00,20.20
2008,08,15,03,01,20.10
2008,08,15,03,02,20.10
2008,08,15,03,03,20.10
2008,08,15,03,04,20.10
2008,08,15,03,05,20.00
2008,08,15,03,06,19.90
2008,08,15,03,07,19.90
2008,08,15,03,08,19.90
2008,08,15,03,09,19.90
2008,08,15,03,10,19.90
2008,08,15,03,11,19.90
2008,08,15,03,12,19.90
2008,08,15,03,13,19.90
2008,08,15,03,14,19.90
2008,08,15,03,15,19.80
2008,08,15,03,16,19.80
2008,08,15,03,17,19.70
2008,08,15,03,18,19.70
2008,08,15,03,19,19.70
2008,08,15,03,20,19.70
2008,08,15,03,21,19.70
2008,08,15,03,22,19.70
2008,08,15,03,23,19.70
2008,08,15,03,24,19.70
2008,08,15,03,25,19.70
2008,08,15,03,26,19.70
2008,08,15,03,27,19.70
2008,08,15,03,28,19.70
2008,08,15,03,29,19.70
2008,08,15,03,30,19.70
2008,08,15,03,31,19.80
2008,08,15,03,32,19.80
2008,08,15,03,33,19.80
2008,08,15,03,34,19.80
2008,08,15,03,35,19.80
2008,08,15,03,36,19.80
2008,08,15,03,37,19.90
2008,08,15,03,38,19.90
2008,08,15,03,39,19.90
2008,08,15,03,40,19.90
2008,08,15,03,41,19.90
2008,08,15,03,42,19.90
2008,08,15,03,43,19.90
2008,08,15,03,44,19.90
2008,08,15,03,45,19.90
2008,08,15,03,46,20.00
2008,08,15,03,47,20.00
2008,08,15,03,48,19.90
2008,08,15,03,49,19.90
2008,08,15,03,50,19.90
2008,08,15,03,51,19.90
2008,08,15,03,52,19.90
2008,08,15,03,53,19.90
2008,08,15,03,54,19.90
2008,08,15,03,55,19.80
2008,08,15,03,56,19.80
2008,08,15,03,57,19.70
2008,08,15,03,58,19.70
2008,08,15,03,59,19.60
2008,08,15,04,00,19.50
2008,08,15,04,01,19.50
2008,08,15,04,02,19.40
2008,08,15,04,03,19.40
2008,08,15,04,04,19.30
2008,08,15,04,05,19.30
2008,08,15,04,06,19.20
2008,08,15,04,07,19.20
2008,08,15,04,08,19.20
2008,08,15,04,09,19.20
2008,08,15,04,10,19.20
2008,08,15,04,11,19.20
2008,08,15,04,12,19.20
2008,08,15,04,13,19.20
2008,08,15,04,14,19.30
2008,08,15,04,15,19.30
2008,08,15,04,16,19.30
2008,08,15,04,17,19.40
2008,08,15,04,18,19.40
2008,08,15,04,19,19.40
2008,08,15,04,20,19.50
2008,08,15,04,21,19.50
2008,08,15,04,22,19.50
2008,08,15,04,23,19.50
2008,08,15,04,24,19.60
2008,08,15,04,25,19.60
2008,08,15,04,26,19.60
2008,08,15,04,27,19.60
2008,08,15,04,28,19.60
2008,08,15,04,29,19.60
2008,08,15,04,30,19.60
2008,08,15,04,31,19.50
2008,08,15,04,32,19.50
2008,08,15,04,33,19.50
2008,08,15,04,34,19.50
2008,08,15,04,35,19.50
2008,08,15,04,36,19.50
2008,08,15,04,37,19.40
2008,08,15,04,38,19.40
2008,08,15,04,39,19.40
2008,08,15,04,40,19.40
2008,08,15,04,41,19.40
2008,08,15,04,42,19.40
2008,08,15,04,43,19.40
2008,08,15,04,44,19.40
2008,08,15,04,45,19.40
2008,08,15,04,46,19.40
2008,08,15,04,47,19.40
2008,08,15,04,48,19.40
2008,08,15,04,49,19.40
2008,08,15,04,50,19.40
2008,08,15,04,51,19.40
2008,08,15,04,52,19.40
2008,08,15,04,53,19.40
2008,08,15,04,54,19.40
2008,08,15,04,55,19.40
2008,08,15,04,56,19.40
2008,08,15,04,57,19.40
2008,08,15,04,58,19.30
2008,08,15,04,59,19.30
2008,08,15,05,00,19.30
2008,08,15,05,01,19.30
2008,08,15,05,02,19.30
2008,08,15,05,03,19.30
2008,08,15,05,04,19.30
2008,08,15,05,05,19.30
2008,08,15,05,06,19.30
2008,08,15,05,07,19.30
2008,08,15,05,08,19.30
2008,08,15,05,09,19.30
2008,08,15,05,10,19.30
2008,08,15,05,11,19.20
2008,08,15,05,12,19.20
2008,08,15,05,13,19.20
2008,08,15,05,14,19.20
2008,08,15,05,15,19.20
2008,08,15,05,16,19.10
2008,08,15,05,17,19.10
2008,08,15,05,18,19.10
2008,08,15,05,19,19.10
2008,08,15,05,20,19.10
2008,08,15,05,21,19.10
2008,08,15,05,22,19.10
2008,08,15,05,23,19.10
2008,08,15,05,24,19.10
2008,08,15,05,25,19.10
2008,08,15,05,26,19.10
2008,08,15,05,27,19.10
2008,08,15,05,28,19.10
2008,08,15,05,29,19.10
2008,08,15,05,30,19.10
2008,08,15,05,31,19.10
2008,08,15,05,32,19.10
2008,08,15,05,33,19.10
2008,08,15,05,34,19.10
2008,08,15,05,35,19.10
2008,08,15,05,36,19.10
2008,08,15,05,37,19.10
2008,08,15,05,38,19.10
2008,08,15,05,39,19.10
2008,08,15,05,40,19.10
2008,08,15,05,41,19.10
2008,08,15,05,42,18.90
2008,08,15,05,43,18.90
2008,08,15,05,44,18.90
2008,08,15,05,45,18.90
2008,08,15,05,46,18.90
2008,08,15,05,47,18.90
2008,08,15,05,48,18.90
2008,08,15,05,49,18.90
2008,08,15,05,50,18.90
2008,08,15,05,51,18.90
2008,08,15,05,52,18.90
2008,08,15,05,53,18.90
2008,08,15,05,54,18.90
2008,08,15,05,55,18.90
2008,08,15,05,56,18.90
2008,08,15,05,57,18.90
2008,08,15,05,58,18.90
2008,08,15,05,59,18.90
2008,08,15,06,00,18.90
2008,08,15,06,01,18.90
2008,08,15,06,02,18.90
2008,08,15,06,03,18.90
2008,08,15,06,04,18.90
2008,08,15,06,05,18.90
2008,08,15,06,06,18.90
2008,08,15,06,07,18.90
2008,08,15,06,08,18.90
2008,08,15,06,09,18.90
2008,08,15,06,10,18.90
2008,08,15,06,11,18.80
2008,08,15,06,12,18.80
2008,08,15,06,13,18.80
2008,08,15,06,14,18.80
2008,08,15,06,15,18.80
2008,08,15,06,16,18.80
2008,08,15,06,17,18.70
2008,08,15,06,18,18.70
2008,08,15,06,19,18.70
2008,08,15,06,20,18.70
2008,08,15,06,21,18.70
2008,08,15,06,22,18.70
2008,08,15,06,23,18.70
2008,08,15,06,24,18.60
2008,08,15,06,25,18.60
2008,08,15,06,26,18.60
2008,08,15,06,27,18.60
2008,08,15,06,28,18.60
2008,08,15,06,29,18.60
2008,08,15,06,30,18.60
2008,08,15,06,31,18.60
2008,08,15,06,32,18.50
2008,08,15,06,33,18.50
2008,08,15,06,34,18.50
2008,08,15,06,35,18.50
2008,08,15,06,36,18.50
2008,08,15,06,37,18.40
2008,08,15,06,38,18.40
2008,08,15,06,39,18.40
2008,08,15,06,40,18.40
2008,08,15,06,41,18.30
2008,08,15,06,42,18.30
2008,08,15,06,43,18.30
2008,08,15,06,44,18.30
2008,08,15,06,45,18.30
2008,08,15,06,46,18.30
2008,08,15,06,47,18.30
2008,08,15,06,48,18.30
2008,08,15,06,49,18.30
2008,08,15,06,50,18.30
2008,08,15,06,51,18.30
2008,08,15,06,52,18.30
2008,08,15,06,53,18.30
2008,08,15,06,54,18.30
2008,08,15,06,55,18.40
2008,08,15,06,56,18.40
2008,08,15,06,57,18.40
2008,08,15,06,58,18.40
2008,08,15,06,59,18.40
2008,08,15,07,00,18.50
2008,08,15,07,01,18.50
2008,08,15,07,02,18.50
2008,08,15,07,03,18.50
2008,08,15,07,04,18.50
2008,08,15,07,05,18.50
2008,08,15,07,06,18.60
2008,08,15,07,07,18.60
2008,08,15,07,08,18.60
2008,08,15,07,09,18.60
2008,08,15,07,10,18.60
2008,08,15,07,11,18.60
2008,08,15,07,12,18.60
2008,08,15,07,13,18.60
2008,08,15,07,14,18.60
2008,08,15,07,15,18.60
2008,08,15,07,16,18.60
2008,08,15,07,17,18.60
2008,08,15,07,18,18.60
2008,08,15,07,19,18.60
2008,08,15,07,20,18.60
2008,08,15,07,21,18.60
2008,08,15,07,22,18.70
2008,08,15,07,23,18.70
2008,08,15,07,24,18.60
2008,08,15,07,25,18.70
2008,08,15,07,26,18.70
2008,08,15,07,27,18.70
2008,08,15,07,28,18.70
2008,08,15,07,29,18.70
2008,08,15,07,30,18.70
2008,08,15,07,31,18.70
2008,08,15,07,32,18.70
2008,08,15,07,33,18.70
2008,08,15,07,34,18.70
2008,08,15,07,35,18.70
2008,08,15,07,36,18.70
2008,08,15,07,37,18.70
2008,08,15,07,38,18.70
2008,08,15,07,39,18.70
2008,08,15,07,40,18.70
2008,08,15,07,41,18.70
2008,08,15,07,42,18.70
2008,08,15,07,43,18.80
2008,08,15,07,44,18.80
2008,08,15,07,45,18.80
2008,08,15,07,46,18.80
2008,08,15,07,47,18.90
2008,08,15,07,48,18.90
2008,08,15,07,49,18.90
2008,08,15,07,50,18.90
2008,08,15,07,51,18.90
2008,08,15,07,52,19.00
2008,08,15,07,53,19.10
2008,08,15,07,54,19.10
2008,08,15,07,55,19.10
2008,08,15,07,56,19.20
2008,08,15,07,57,19.20
2008,08,15,07,58,19.30
2008,08,15,07,59,19.30
2008,08,15,08,00,19.40
2008,08,15,08,01,19.50
2008,08,15,08,02,19.50
2008,08,15,08,03,19.50
2008,08,15,08,04,19.60
2008,08,15,08,05,19.60
2008,08,15,08,06,19.60
2008,08,15,08,07,19.70
2008,08,15,08,08,19.70
2008,08,15,08,09,19.80
2008,08,15,08,10,19.90
2008,08,15,08,11,19.90
2008,08,15,08,12,20.00
2008,08,15,08,13,20.10
2008,08,15,08,14,20.20
2008,08,15,08,15,20.20
2008,08,15,08,16,20.20
2008,08,15,08,17,20.20
2008,08,15,08,18,20.30
2008,08,15,08,19,20.30
2008,08,15,08,20,20.40
2008,08,15,08,21,20.40
2008,08,15,08,22,20.40
2008,08,15,08,23,20.40
2008,08,15,08,24,20.50
2008,08,15,08,25,20.50
2008,08,15,08,26,20.50
2008,08,15,08,27,20.60
2008,08,15,08,28,20.60
2008,08,15,08,29,20.60
2008,08,15,08,30,20.60
2008,08,15,08,31,20.60
2008,08,15,08,32,20.70
2008,08,15,08,33,20.70
2008,08,15,08,34,20.70
2008,08,15,08,35,20.70
2008,08,15,08,36,20.80
2008,08,15,08,37,20.80
2008,08,15,08,38,20.80
2008,08,15,08,39,20.90
2008,08,15,08,40,20.90
2008,08,15,08,41,20.90
2008,08,15,08,42,20.90
2008,08,15,08,43,21.00
2008,08,15,08,44,21.00
2008,08,15,08,45,21.00
2008,08,15,08,46,21.10
2008,08,15,08,47,21.20
2008,08,15,08,48,21.30
2008,08,15,08,49,21.30
2008,08,15,08,50,21.30
2008,08,15,08,51,21.40
2008,08,15,08,52,21.50
2008,08,15,08,53,21.60
2008,08,15,08,54,21.60
2008,08,15,08,55,21.60
2008,08,15,08,56,21.60
2008,08,15,08,57,21.60
2008,08,15,08,58,21.60
2008,08,15,08,59,21.60
2008,08,15,09,00,21.70
2008,08,15,09,01,21.70
2008,08,15,09,02,21.80
2008,08,15,09,03,21.80
2008,08,15,09,04,21.90
2008,08,15,09,05,21.90
2008,08,15,09,06,22.00
2008,08,15,09,07,22.10
2008,08,15,09,08,22.10
2008,08,15,09,09,22.20
2008,08,15,09,10,22.20
2008,08,15,09,11,22.30
2008,08,15,09,12,22.30
2008,08,15,09,13,22.40
2008,08,15,09,14,22.40
2008,08,15,09,15,22.50
2008,08,15,09,16,22.60
2008,08,15,09,17,22.60
2008,08,15,09,18,22.70
2008,08,15,09,19,22.70
2008,08,15,09,20,22.70
2008,08,15,09,21,22.80
2008,08,15,09,22,22.90
2008,08,15,09,23,22.90
2008,08,15,09,24,22.90
2008,08,15,09,25,22.90
2008,08,15,09,26,22.90
2008,08,15,09,27,22.90
2008,08,15,09,28,22.90
2008,08,15,09,29,22.90
2008,08,15,09,30,22.90
2008,08,15,09,31,22.90
2008,08,15,09,32,22.90
2008,08,15,09,33,22.90
2008,08,15,09,34,22.90
2008,08,15,09,35,22.90
2008,08,15,09,36,22.90
2008,08,15,09,37,22.90
2008,08,15,09,38,23.00
2008,08,15,09,39,23.10
2008,08,15,09,40,23.20
2008,08,15,09,41,23.20
2008,08,15,09,42,23.20
2008,08,15,09,43,23.20
2008,08,15,09,44,23.20
2008,08,15,09,45,23.20
2008,08,15,09,46,23.20
2008,08,15,09,47,23.20
2008,08,15,09,48,23.30
2008,08,15,09,49,23.30
2008,08,15,09,50,23.30
2008,08,15,09,51,23.30
2008,08,15,09,52,23.30
2008,08,15,09,53,23.30
2008,08,15,09,54,23.30
2008,08,15,09,55,23.40
2008,08,15,09,56,23.40
2008,08,15,09,57,23.50
2008,08,15,09,58,23.60
2008,08,15,09,59,23.70
2008,08,15,10,00,23.70
2008,08,15,10,01,23.70
2008,08,15,10,02,23.70
2008,08,15,10,03,23.80
2008,08,15,10,04,23.80
2008,08,15,10,05,23.80
2008,08,15,10,06,23.90
2008,08,15,10,07,23.90
2008,08,15,10,08,24.00
2008,08,15,10,09,24.10
2008,08,15,10,10,24.10
2008,08,15,10,11,24.20
2008,08,15,10,12,24.30
2008,08,15,10,13,24.40
2008,08,15,10,14,24.40
2008,08,15,10,15,24.40
2008,08,15,10,16,24.40
2008,08,15,10,17,24.50
2008,08,15,10,18,24.50
2008,08,15,10,19,24.60
2008,08,15,10,20,24.70
2008,08,15,10,21,24.80
2008,08,15,10,22,24.80
2008,08,15,10,23,24.90
2008,08,15,10,24,25.00
2008,08,15,10,25,25.00
2008,08,15,10,26,25.10
2008,08,15,10,27,25.10
2008,08,15,10,28,25.10
2008,08,15,10,29,25.20
2008,08,15,10,30,25.20
2008,08,15,10,31,25.30
2008,08,15,10,32,25.30
2008,08,15,10,33,25.40
2008,08,15,10,34,25.40
2008,08,15,10,35,25.40
2008,08,15,10,36,25.50
2008,08,15,10,37,25.60
2008,08,15,10,38,25.60
2008,08,15,10,39,25.60
2008,08,15,10,40,25.70
2008,08,15,10,41,25.70
2008,08,15,10,42,25.80
2008,08,15,10,43,25.90
2008,08,15,10,44,25.90
2008,08,15,10,45,25.90
2008,08,15,10,46,25.90
2008,08,15,10,47,25.90
2008,08,15,10,48,25.90
2008,08,15,10,49,25.90
2008,08,15,10,50,25.90
2008,08,15,10,51,25.90
2008,08,15,10,52,25.90
2008,08,15,10,53,25.90
2008,08,15,10,54,26.00
2008,08,15,10,55,26.00
2008,08,15,10,56,26.10
2008,08,15,10,57,26.10
2008,08,15,10,58,26.20
2008,08,15,10,59,26.30
2008,08,15,11,00,26.40
2008,08,15,11,01,26.40
2008,08,15,11,02,26.60
2008,08,15,11,03,26.70
2008,08,15,11,04,26.80
2008,08,15,11,05,26.90
2008,08,15,11,06,27.10
2008,08,15,11,07,27.10
2008,08,15,11,08,27.20
2008,08,15,11,09,27.30
2008,08,15,11,10,27.30
2008,08,15,11,11,27.20
2008,08,15,11,12,27.20
2008,08,15,11,13,27.10
2008,08,15,11,14,27.10
2008,08,15,11,15,27.00
2008,08,15,11,16,26.90
2008,08,15,11,17,26.90
2008,08,15,11,18,26.90
2008,08,15,11,19,26.90
2008,08,15,11,20,26.80
2008,08,15,11,21,26.80
2008,08,15,11,22,26.80
2008,08,15,11,23,26.90
2008,08,15,11,24,26.90
2008,08,15,11,25,26.90
2008,08,15,11,26,26.80
2008,08,15,11,27,26.80
2008,08,15,11,28,26.80
2008,08,15,11,29,26.90
2008,08,15,11,30,27.00
2008,08,15,11,31,27.10
2008,08,15,11,32,27.10
2008,08,15,11,33,27.10
2008,08,15,11,34,27.10
2008,08,15,11,35,27.00
2008,08,15,11,36,26.90
2008,08,15,11,37,26.80
2008,08,15,11,38,26.90
2008,08,15,11,39,26.90
2008,08,15,11,40,26.90
2008,08,15,11,41,26.80
2008,08,15,11,42,26.80
2008,08,15,11,43,26.80
2008,08,15,11,44,26.80
2008,08,15,11,45,26.80
2008,08,15,11,46,26.80
2008,08,15,11,47,26.80
2008,08,15,11,48,26.70
2008,08,15,11,49,26.70
2008,08,15,11,50,26.70
2008,08,15,11,51,26.70
2008,08,15,11,52,26.70
2008,08,15,11,53,26.90
2008,08,15,11,54,26.90
2008,08,15,11,55,27.00
2008,08,15,11,56,27.00
2008,08,15,11,57,26.90
2008,08,15,11,58,26.90
2008,08,15,11,59,26.90
2008,08,15,12,00,26.90
2008,08,15,12,01,26.90
2008,08,15,12,02,26.80
2008,08,15,12,03,26.80
2008,08,15,12,04,26.90
2008,08,15,12,05,27.00
2008,08,15,12,06,27.10
2008,08,15,12,07,27.20
2008,08,15,12,08,27.30
2008,08,15,12,09,27.30
2008,08,15,12,10,27.30
2008,08,15,12,11,27.30
2008,08,15,12,12,27.30
2008,08,15,12,13,27.40
2008,08,15,12,14,27.50
2008,08,15,12,15,27.70
2008,08,15,12,16,27.80
2008,08,15,12,17,28.00
2008,08,15,12,18,28.10
2008,08,15,12,19,28.20
2008,08,15,12,20,28.30
2008,08,15,12,21,28.40
2008,08,15,12,22,28.60
2008,08,15,12,23,28.60
2008,08,15,12,24,28.70
2008,08,15,12,25,28.80
2008,08,15,12,26,28.90
2008,08,15,12,27,28.90
2008,08,15,12,28,28.80
2008,08,15,12,29,28.50
2008,08,15,12,30,28.30
2008,08,15,12,31,28.10
2008,08,15,12,32,28.10
2008,08,15,12,33,28.00
2008,08,15,12,34,28.00
2008,08,15,12,35,28.00
2008,08,15,12,36,28.00
2008,08,15,12,37,28.00
2008,08,15,12,38,28.10
2008,08,15,12,39,28.10
2008,08,15,12,40,28.10
2008,08,15,12,41,28.10
2008,08,15,12,42,28.10
2008,08,15,12,43,28.00
2008,08,15,12,44,27.80
2008,08,15,12,45,27.70
2008,08,15,12,46,27.60
2008,08,15,12,47,27.60
2008,08,15,12,48,27.40
2008,08,15,12,49,27.40
2008,08,15,12,50,27.40
2008,08,15,12,51,27.30
2008,08,15,12,52,27.30
2008,08,15,12,53,27.30
2008,08,15,12,54,27.30
2008,08,15,12,55,27.30
2008,08,15,12,56,27.30
2008,08,15,12,57,27.20
2008,08,15,12,58,27.10
2008,08,15,12,59,27.10
2008,08,15,13,00,27.10
2008,08,15,13,01,27.10
2008,08,15,13,02,27.20
2008,08,15,13,03,27.20
2008,08,15,13,04,27.30
2008,08,15,13,05,27.30
2008,08,15,13,06,27.30
2008,08,15,13,07,27.10
2008,08,15,13,08,26.90
2008,08,15,13,09,26.50
2008,08,15,13,10,26.20
2008,08,15,13,11,25.90
2008,08,15,13,12,25.80
2008,08,15,13,13,25.60
2008,08,15,13,14,25.60
2008,08,15,13,15,25.60
2008,08,15,13,16,25.60
2008,08,15,13,17,25.50
2008,08,15,13,18,25.40
2008,08,15,13,19,25.30
2008,08,15,13,20,25.30
2008,08,15,13,21,25.20
2008,08,15,13,22,25.20
2008,08,15,13,23,25.10
2008,08,15,13,24,25.00
2008,08,15,13,25,24.90
2008,08,15,13,26,25.00
2008,08,15,13,27,25.10
2008,08,15,13,28,25.10
2008,08,15,13,29,25.20
2008,08,15,13,30,25.20
2008,08,15,13,31,25.30
2008,08,15,13,32,25.30
2008,08,15,13,33,25.40
2008,08,15,13,34,25.40
2008,08,15,13,35,25.50
2008,08,15,13,36,25.50
2008,08,15,13,37,25.60
2008,08,15,13,38,25.60
2008,08,15,13,39,25.70
2008,08,15,13,40,25.80
2008,08,15,13,41,25.80
2008,08,15,13,42,25.80
2008,08,15,13,43,25.90
2008,08,15,13,44,25.90
2008,08,15,13,45,25.90
2008,08,15,13,46,25.90
2008,08,15,13,47,25.90
2008,08,15,13,48,26.00
2008,08,15,13,49,26.00
2008,08,15,13,50,26.00
2008,08,15,13,51,26.00
2008,08,15,13,52,26.10
2008,08,15,13,53,26.00
2008,08,15,13,54,26.00
2008,08,15,13,55,26.00
2008,08,15,13,56,26.00
2008,08,15,13,57,26.00
2008,08,15,13,58,26.00
2008,08,15,13,59,26.00
2008,08,15,14,00,26.10
2008,08,15,14,01,26.10
2008,08,15,14,02,26.10
2008,08,15,14,03,26.10
2008,08,15,14,04,26.20
2008,08,15,14,05,26.30
2008,08,15,14,06,26.40
2008,08,15,14,07,26.50
2008,08,15,14,08,26.60
2008,08,15,14,09,26.60
2008,08,15,14,10,26.40
2008,08,15,14,11,26.40
2008,08,15,14,12,26.20
2008,08,15,14,13,26.10
2008,08,15,14,14,25.90
2008,08,15,14,15,25.80
2008,08,15,14,16,25.60
2008,08,15,14,17,25.40
2008,08,15,14,18,25.40
2008,08,15,14,19,25.30
2008,08,15,14,20,25.30
2008,08,15,14,21,25.30
2008,08,15,14,22,25.30
2008,08,15,14,23,25.30
2008,08,15,14,24,25.30
2008,08,15,14,25,25.30
2008,08,15,14,26,25.30
2008,08,15,14,27,25.40
2008,08,15,14,28,25.40
2008,08,15,14,29,25.40
2008,08,15,14,30,25.40
2008,08,15,14,31,25.50
2008,08,15,14,32,25.50
2008,08,15,14,33,25.60
2008,08,15,14,34,25.60
2008,08,15,14,35,25.70
2008,08,15,14,36,25.80
2008,08,15,14,37,25.80
2008,08,15,14,38,25.80
2008,08,15,14,39,25.80
2008,08,15,14,40,25.70
2008,08,15,14,41,25.70
2008,08,15,14,42,25.70
2008,08,15,14,43,25.70
2008,08,15,14,44,25.70
2008,08,15,14,45,25.80
2008,08,15,14,46,25.80
2008,08,15,14,47,25.80
2008,08,15,14,48,25.70
2008,08,15,14,49,25.60
2008,08,15,14,50,25.40
2008,08,15,14,51,25.30
2008,08,15,14,52,25.30
2008,08,15,14,53,25.40
2008,08,15,14,54,25.40
2008,08,15,14,55,25.50
2008,08,15,14,56,25.50
2008,08,15,14,57,25.60
2008,08,15,14,58,25.60
2008,08,15,14,59,25.60
2008,08,15,15,00,25.60
2008,08,15,15,01,25.60
2008,08,15,15,02,25.60
2008,08,15,15,03,25.50
2008,08,15,15,04,25.50
2008,08,15,15,05,25.50
2008,08,15,15,06,25.50
2008,08,15,15,07,25.50
2008,08,15,15,08,25.60
2008,08,15,15,09,25.60
2008,08,15,15,10,25.60
2008,08,15,15,11,25.70
2008,08,15,15,12,25.80
2008,08,15,15,13,25.80
2008,08,15,15,14,25.80
2008,08,15,15,15,25.80
2008,08,15,15,16,25.90
2008,08,15,15,17,25.90
2008,08,15,15,18,25.90
2008,08,15,15,19,26.00
2008,08,15,15,20,26.00
2008,08,15,15,21,26.00
2008,08,15,15,22,26.10
2008,08,15,15,23,26.20
2008,08,15,15,24,26.30
2008,08,15,15,25,26.40
2008,08,15,15,26,26.40
2008,08,15,15,27,26.40
2008,08,15,15,28,26.40
2008,08,15,15,29,26.40
2008,08,15,15,30,26.50
2008,08,15,15,31,26.60
2008,08,15,15,32,26.60
2008,08,15,15,33,26.60
2008,08,15,15,34,26.60
2008,08,15,15,35,26.60
2008,08,15,15,36,26.70
2008,08,15,15,37,26.80
2008,08,15,15,38,26.80
2008,08,15,15,39,26.90
2008,08,15,15,40,27.00
2008,08,15,15,41,27.10
2008,08,15,15,42,27.20
2008,08,15,15,43,27.20
2008,08,15,15,44,27.30
2008,08,15,15,45,27.30
2008,08,15,15,46,27.40
2008,08,15,15,47,27.40
2008,08,15,15,48,27.50
2008,08,15,15,49,27.60
2008,08,15,15,50,27.70
2008,08,15,15,51,27.80
2008,08,15,15,52,27.90
2008,08,15,15,53,27.90
2008,08,15,15,54,27.90
2008,08,15,15,55,28.00
2008,08,15,15,56,28.00
2008,08,15,15,57,28.00
2008,08,15,15,58,28.00
2008,08,15,15,59,28.20
2008,08,15,16,00,28.20
2008,08,15,16,01,28.20
2008,08,15,16,02,28.10
2008,08,15,16,03,28.10
2008,08,15,16,04,28.10
2008,08,15,16,05,28.10
2008,08,15,16,06,28.10
2008,08,15,16,07,28.00
2008,08,15,16,08,28.00
2008,08,15,16,09,28.00
2008,08,15,16,10,28.00
2008,08,15,16,11,28.00
2008,08,15,16,12,28.10
2008,08,15,16,13,28.20
2008,08,15,16,14,28.30
2008,08,15,16,15,28.40
2008,08,15,16,16,28.50
2008,08,15,16,17,28.60
2008,08,15,16,18,28.70
2008,08,15,16,19,28.80
2008,08,15,16,20,28.90
2008,08,15,16,21,28.90
2008,08,15,16,22,28.90
2008,08,15,16,23,28.90
2008,08,15,16,24,28.90
2008,08,15,16,25,28.90
2008,08,15,16,26,28.90
2008,08,15,16,27,28.80
2008,08,15,16,28,28.70
2008,08,15,16,29,28.60
2008,08,15,16,30,28.40
2008,08,15,16,31,28.30
2008,08,15,16,32,28.10
2008,08,15,16,33,28.00
2008,08,15,16,34,27.80
2008,08,15,16,35,27.60
2008,08,15,16,36,27.50
2008,08,15,16,37,27.40
2008,08,15,16,38,27.40
2008,08,15,16,39,27.40
2008,08,15,16,40,27.50
2008,08,15,16,41,27.60
2008,08,15,16,42,27.60
2008,08,15,16,43,27.60
2008,08,15,16,44,27.70
2008,08,15,16,45,27.70
2008,08,15,16,46,27.70
2008,08,15,16,47,27.80
2008,08,15,16,48,27.80
2008,08,15,16,49,27.80
2008,08,15,16,50,27.90
2008,08,15,16,51,27.90
2008,08,15,16,52,28.00
2008,08,15,16,53,28.10
2008,08,15,16,54,28.20
2008,08,15,16,55,28.30
2008,08,15,16,56,28.30
2008,08,15,16,57,28.40
2008,08,15,16,58,28.50
2008,08,15,16,59,28.60
2008,08,15,17,00,28.70
2008,08,15,17,01,28.70
2008,08,15,17,02,28.70
2008,08,15,17,03,28.70
2008,08,15,17,04,28.60
2008,08,15,17,05,28.50
2008,08,15,17,06,28.40
2008,08,15,17,07,28.20
2008,08,15,17,08,28.00
2008,08,15,17,09,27.90
2008,08,15,17,10,27.80
2008,08,15,17,11,27.70
2008,08,15,17,12,27.70
2008,08,15,17,13,27.60
2008,08,15,17,14,27.60
2008,08,15,17,15,27.60
2008,08,15,17,16,27.60
2008,08,15,17,17,27.70
2008,08,15,17,18,27.80
2008,08,15,17,19,27.80